FLOCK 2K-02 (42853 NORAD) Tracking and Keplerian Element Data

This shows tracking and keplerian element data for the satellite.

Feedback or suggestion? Click here.




ElementValue
Catalog42853
NameFLOCK 2K-02
Epoch Orbit15551
Epoch Day114.86510106
Epoch Year2020
RAAN343.137
Inclination96.8995
Eccentricity0.0009759
Argument of Perigee170.4907
Mean Anonmoly189.6527
Mean Motion15.39698
Decay Rate5.07E-05
L11 42853U 17042AE 20114.86510106 .00005070 00000-0 13010-3 0 9991
L22 42853 96.8995 343.1370 0009759 170.4907 189.6527 15.39698000155515



Live tracking and technical data element details for FLOCK 2K-02 (NORAD 42853). FLOCK 2K-02 can be tracked NOW for your location showing map with azimuth and elevation plus other details from your city location.







IsCatalogInMostPopularTable: catalog: 42853, numindb: 657
Update: records affected: 1



GetName: 42853 FLOCK 2K-02

Hit Count: updated at: Sat, 06 Dec 2025 13:28:39 GMT